This is the latest recevied weather packets stored in our database for station/object DJ2FR. If no packets are shown the sender has not sent any weather packets the latest 10 day(s).
| Time | Temp. | Humidity | Pressure | Rain* | Wind** | Luminosity | Snow |
|---|---|---|---|---|---|---|---|
| 1777638564 | 67.78° C | 100% | 1032 hPa | - | - | - | - |
| 1777637960 | 67.78° C | 100% | 1028.7 hPa | - | - | - | - |
| 1777637357 | 67.22° C | 100% | 1030.1 hPa | - | - | - | - |
| 1777636752 | 66.67° C | 100% | 1030.6 hPa | - | - | - | - |
| 1777636148 | 66.11° C | 100% | 1030.3 hPa | - | - | - | - |
| 1777635544 | 65° C | 100% | 1029.7 hPa | - | - | - | - |
| 1777634940 | 64.44° C | 100% | 1029.7 hPa | - | - | - | - |
| 1777634336 | 63.33° C | 100% | 1030.3 hPa | - | - | - | - |
| 1777633732 | 61.67° C | 100% | 1030 hPa | - | - | - | - |
| 1777633128 | 59.44° C | 100% | 1030.2 hPa | - | - | - | - |
| 1777632525 | 56.67° C | 1% | 1030 hPa | - | - | - | - |
| 1777631920 | 53.89° C | 1% | 1029 hPa | - | - | - | - |
| 1777631317 | 51.11° C | 2% | 1029.3 hPa | - | - | - | - |
| 1777630712 | 47.78° C | 3% | 1031.3 hPa | - | - | - | - |
| 1777630108 | 43.33° C | 5% | 1035.2 hPa | - | - | - | - |
| 1777629504 | 39.44° C | 6% | 1031.8 hPa | - | - | - | - |
| 1777628900 | 34.44° C | 9% | 1032.6 hPa | - | - | - | - |
| 1777628296 | 27.22° C | 14% | 1032.9 hPa | - | - | - | - |
| 1777627693 | 18.89° C | 20% | 1031.2 hPa | - | - | - | - |
| 1777627088 | 18.89° C | 20% | 1031.4 hPa | - | - | - | - |
| 1777626484 | 18.89° C | 20% | 1031.6 hPa | - | - | - | - |
| 1777625880 | 18.33° C | 20% | 1032.3 hPa | - | - | - | - |
| 1777625277 | 18.33° C | 20% | 1030.9 hPa | - | - | - | - |
| 1777624673 | 18.33° C | 19% | 1030.8 hPa | - | - | - | - |
| 1777624068 | 18.89° C | 19% | 1030.2 hPa | - | - | - | - |
* Rain since midnight (hover to see other rain measurements)
** Current wind speed in m/s (hover to see current wind gust speed)